Location: Gro�wechsungen
(51.4926°N, 10.6901°E)
Time: 01:16:03
(UTC+00:00)

ATLAS 2AS CENTAUR R/B - Pass Details

Date: 18 September 2020
Orbit: 939 x 1273 km, 63.7° (Epoch: 19 October)

Event Time Altitude Azimuth Distance (km) Brightness Sun altitude
Exits shadow 22:59:05 15° 268° (W) 2,922 4.9 -37.0°
Maximum altitude 23:05:30 44° 335° (NNW) 1,682 3.9 -37.1°
Drops below altitude 10° 23:12:48 10° 47° (NE) 3,164 5.6 -37.1°
Sets 23:15:41 0° 54° (NE) 4,087 6.2 -37.1°
